STARLINK-30086, 56297

Orbit data source: Space-Track

STARLINK-30086, 56297 is a payload satellite owned by SpaceX/Seattle (US) in LEO that was launched on Wed, 19 Apr 2023 UTC via an FALCON 9 launch vehicle from the Air Force Eastern Test Range (AFETR). Payload-class satellites include a variety of spacecraft equipped with specific instruments for various scientific and technological missions. These include communications satellites like Starlink; space stations such as the ISS; scientific satellites like the Hubble; Earth observation satellites from companies like Planet Labs, Umbra, and HawkEye 360; GPS; miniature CubeSats for education and research; and military/defense satellites.

Loading next visibility...
Identifier
56297, 2023-056M
Orbit
LEO
Country
Flag of USUS
Related business
Manufacturer
SpaceX/Seattle
Mission
Operational Commercial Communications
Bus & Motor
STARLINK V2M, Unknown motor
Mass
730 kg wet, ~700 kg dry
Launch date (UTC)
2023-04-19 (3 years ago)
Launch vehicle
FALCON 9
Launch site
Air Force Eastern Test Range (AFETR)
Object type
Payload
Rocket body
Debris
Shape & HBR
Box + 2 Pan, 17.7 m
Radar Cross Section
33.884 m², Large (>1 m²)

Expand to show TLE details & history
Last TLE update: 18 hours ago

TLE from 18 hours ago
0 STARLINK-30086
1 56297U 23056M   25348.93864296 -.00001402  00000-0 -88779-4 0  9996
2 56297  43.0026 310.8468 0000460 257.5853 102.4938 15.02527657147279
Epoch: 2025-12-14T22:31Z
TLE epoch observation values (Epoch: 2025-12-14T22:31:38.751Z)
Latitude
-0.00002°
Longitude
-110.90906°
Altitude
558.952 km
Speed
7.584 km/s
True Right ascension
20h 43m 23s
True Declination
0° 00' 00"
Sunlit
Object was in daylight at epoch
Visualization orbit readout
Latitude
Unknown
Longitude
Unknown
Altitude
Unknown
Speed
Unknown
Apparent Right ascension
Unknown
Apparent Declination
Unknown
Sunlit
N/A
Visualization observer readout
Local Sidereal Time
15:11:34
Azimuth
Unknown
Elevation
Unknown
Doppler factor
Unknown
Orbital elements
Apogee altitude
561.348 km
Perigee altitude
560.71 km
Semi-major axis
6,939.166 km
Eccentricity
0.00005
Inclination
43.0026°
RAAN
310.8468°
Arg. of periapsis
257.5853°
True anomaly
102.49895°
Mean anomaly
102.4938°
Eccentric anomaly
102.49637°
Mean motion
3.75476 °/min
Orbital period
95.88 mins
BSTAR
-0.000088779
Loading maneuver chart data...
Computing Atmospheric mass density...
Loading historical data...
Loading historical data...
Loading historical data...
Loading historical data...
Loading historical data...
Loading historical data...
Loading historical data...

Documentation

Showing up to 5 results
|